• In Österreich
  • Länderverzeichnis
  • Für 7 Tage
  • Wassertemperatur
  • Satellitenkarten
  • Wetterkarte
  • News
  • Widgets
  • user-avatar
    Anmelden

    Stündliche Wetter Chyzhivka

    Heute, 18 Juni, Montag

    Zeit Temperatur Niederschläge Wind Luftdruck Luftfeuchtigkeit
    00:00 +19°C° 0 mm 2 m/S 743 mmHg 92%
    01:00 +19°C° 0 mm 2 m/S 743 mmHg 93%
    02:00 +19°C° 0 mm 1 m/S 743 mmHg 93%
    03:00 +19°C° 0,3 mm 1 m/S 743 mmHg 94%
    04:00 +18°C° 0,3 mm 2 m/S 743 mmHg 95%
    05:00 +18°C° 0,3 mm 2 m/S 743 mmHg 96%
    06:00 +20°C° 1 mm 2 m/S 743 mmHg 92%
    07:00 +21°C° 1 mm 2 m/S 743 mmHg 88%
    08:00 +24°C° 0 mm 2 m/S 744 mmHg 84%
    09:00 +25°C° 1 mm 2 m/S 744 mmHg 77%
    10:00 +26°C° 1 mm 3 m/S 744 mmHg 71%
    11:00 +27°C° 1 mm 3 m/S 744 mmHg 65%
    12:00 +28°C° 0,2 mm 3 m/S 744 mmHg 63%
    13:00 +28°C° 0,2 mm 3 m/S 744 mmHg 62%
    14:00 +29°C° 0 mm 3 m/S 744 mmHg 61%
    15:00 +28°C° 0,5 mm 3 m/S 744 mmHg 64%
    16:00 +28°C° 0,5 mm 3 m/S 744 mmHg 68%
    17:00 +27°C° 0,5 mm 3 m/S 744 mmHg 72%
    18:00 +26°C° 0,2 mm 2 m/S 744 mmHg 76%
    19:00 +24°C° 0,2 mm 2 m/S 744 mmHg 81%
    20:00 +23°C° 0,2 mm 1 m/S 744 mmHg 86%
    21:00 +22°C° 0,1 mm 1 m/S 744 mmHg 87%
    22:00 +21°C° 0,1 mm 1 m/S 744 mmHg 89%
    23:00 +21°C° 0,1 mm 1 m/S 745 mmHg 90%

    Morgen, 19 Juni, Dienstag

    Zeit Temperatur Niederschläge Wind Luftdruck Luftfeuchtigkeit
    00:00 +20°C° 0 mm 1 m/S 745 mmHg 91%
    01:00 +20°C° 0 mm 1 m/S 745 mmHg 91%
    02:00 +17°C° 0 mm 0 m/S 745 mmHg 92%
    03:00 +18°C° 0 mm 0 m/S 745 mmHg 91%
    04:00 +18°C° 0 mm 0 m/S 745 mmHg 91%
    05:00 +18°C° 0 mm 0 m/S 745 mmHg 91%
    06:00 +19°C° 0 mm 0 m/S 745 mmHg 86%
    07:00 +21°C° 0 mm 0 m/S 746 mmHg 81%
    08:00 +23°C° 0 mm 0 m/S 746 mmHg 76%
    09:00 +24°C° 0 mm 0 m/S 746 mmHg 71%
    10:00 +25°C° 0 mm 0 m/S 746 mmHg 65%
    11:00 +29°C° 0 mm 1 m/S 746 mmHg 60%
    12:00 +29°C° 0,4 mm 1 m/S 746 mmHg 59%
    13:00 +29°C° 0,4 mm 1 m/S 746 mmHg 58%
    14:00 +29°C° 0,4 mm 2 m/S 746 mmHg 57%
    15:00 +30°C° 0 mm 2 m/S 745 mmHg 57%
    16:00 +30°C° 0 mm 2 m/S 745 mmHg 58%
    17:00 +30°C° 0 mm 2 m/S 745 mmHg 58%
    18:00 +28°C° 0,1 mm 2 m/S 745 mmHg 65%
    19:00 +26°C° 0,1 mm 2 m/S 745 mmHg 71%
    20:00 +24°C° 0,1 mm 2 m/S 745 mmHg 78%
    21:00 +23°C° 0,1 mm 2 m/S 746 mmHg 82%
    22:00 +21°C° 0,1 mm 2 m/S 746 mmHg 87%
    23:00 +20°C° 0,1 mm 2 m/S 746 mmHg 91%

    übermorgen, 20 Juni, Mittwoch

    Zeit Temperatur Niederschläge Wind Luftdruck Luftfeuchtigkeit
    00:00 +19°C° 0 mm 2 m/S 746 mmHg 92%
    01:00 +19°C° 0 mm 2 m/S 747 mmHg 93%
    02:00 +18°C° 0 mm 2 m/S 747 mmHg 94%
    03:00 +18°C° 0 mm 2 m/S 747 mmHg 94%
    04:00 +18°C° 0 mm 2 m/S 747 mmHg 94%
    05:00 +17°C° 0 mm 2 m/S 748 mmHg 95%
    06:00 +19°C° 0 mm 2 m/S 748 mmHg 89%
    07:00 +20°C° 0 mm 2 m/S 748 mmHg 84%
    08:00 +21°C° 0 mm 3 m/S 749 mmHg 78%
    09:00 +24°C° 0 mm 2 m/S 749 mmHg 72%
    10:00 +25°C° 0 mm 2 m/S 749 mmHg 66%
    11:00 +26°C° 0 mm 2 m/S 749 mmHg 60%
    12:00 +26°C° 0 mm 2 m/S 748 mmHg 57%
    13:00 +27°C° 0 mm 2 m/S 748 mmHg 55%
    14:00 +27°C° 0 mm 2 m/S 748 mmHg 53%
    15:00 +27°C° 0 mm 2 m/S 748 mmHg 54%
    16:00 +27°C° 0 mm 2 m/S 748 mmHg 55%
    17:00 +27°C° 0 mm 2 m/S 747 mmHg 56%
    18:00 +26°C° 0 mm 2 m/S 747 mmHg 62%
    19:00 +24°C° 0 mm 1 m/S 747 mmHg 67%
    20:00 +23°C° 0 mm 1 m/S 747 mmHg 73%
    21:00 +22°C° 0 mm 1 m/S 747 mmHg 75%
    22:00 +21°C° 0 mm 1 m/S 747 mmHg 76%
    23:00 +20°C° 0 mm 1 m/S 747 mmHg 78%

    21 Juni, Donnerstag

    Zeit Temperatur Niederschläge Wind Luftdruck Luftfeuchtigkeit
    00:00 +17°C° 0 mm 0 m/S 747 mmHg 80%
    01:00 +17°C° 0 mm 0 m/S 747 mmHg 82%
    02:00 +16°C° 0 mm 0 m/S 747 mmHg 84%
    03:00 +17°C° 0 mm 0 m/S 747 mmHg 84%
    04:00 +17°C° 0 mm 0 m/S 747 mmHg 84%
    05:00 +17°C° 0 mm 0 m/S 746 mmHg 84%
    06:00 +19°C° 0 mm 0 m/S 746 mmHg 78%
    07:00 +22°C° 0 mm 1 m/S 746 mmHg 73%
    08:00 +24°C° 0 mm 1 m/S 746 mmHg 68%
    09:00 +25°C° 0 mm 1 m/S 746 mmHg 64%
    10:00 +26°C° 0 mm 2 m/S 745 mmHg 61%
    11:00 +27°C° 0 mm 2 m/S 745 mmHg 57%
    12:00 +28°C° 0 mm 2 m/S 745 mmHg 57%
    13:00 +28°C° 0 mm 3 m/S 744 mmHg 57%
    14:00 +28°C° 0 mm 3 m/S 743 mmHg 57%
    15:00 +28°C° 0,1 mm 3 m/S 743 mmHg 60%
    16:00 +28°C° 0,1 mm 3 m/S 742 mmHg 62%
    17:00 +28°C° 0,1 mm 4 m/S 742 mmHg 64%
    18:00 +26°C° 0,2 mm 3 m/S 742 mmHg 71%
    19:00 +25°C° 0,2 mm 3 m/S 741 mmHg 78%
    20:00 +22°C° 0,2 mm 3 m/S 741 mmHg 85%
    21:00 +22°C° 0,1 mm 3 m/S 741 mmHg 85%
    22:00 +21°C° 0,1 mm 4 m/S 740 mmHg 86%
    23:00 +21°C° 0,1 mm 4 m/S 740 mmHg 86%

    22 Juni, Freitag

    Zeit Temperatur Niederschläge Wind Luftdruck Luftfeuchtigkeit
    00:00 +20°C° 0,2 mm 4 m/S 740 mmHg 88%
    01:00 +20°C° 0,2 mm 4 m/S 739 mmHg 89%
    02:00 +19°C° 0,2 mm 4 m/S 739 mmHg 90%
    03:00 +19°C° 0,4 mm 4 m/S 738 mmHg 91%
    04:00 +19°C° 0,4 mm 4 m/S 738 mmHg 92%
    05:00 +19°C° 0,4 mm 4 m/S 737 mmHg 93%
    06:00 +20°C° 0,2 mm 5 m/S 738 mmHg 90%
    07:00 +21°C° 0,2 mm 5 m/S 738 mmHg 88%
    08:00 +22°C° 0,2 mm 5 m/S 738 mmHg 86%
    09:00 +21°C° 0,2 mm 5 m/S 739 mmHg 87%
    10:00 +19°C° 0,2 mm 6 m/S 739 mmHg 88%
    11:00 +17°C° 0,2 mm 6 m/S 739 mmHg 89%
    12:00 +19°C° 0 mm 6 m/S 739 mmHg 81%
    13:00 +20°C° 0 mm 6 m/S 740 mmHg 72%
    14:00 +21°C° 0 mm 5 m/S 740 mmHg 64%
    15:00 +19°C° 0,2 mm 5 m/S 740 mmHg 68%
    16:00 +18°C° 0,2 mm 4 m/S 740 mmHg 73%
    17:00 +15°C° 0,2 mm 4 m/S 740 mmHg 78%
    18:00 +14°C° 0,3 mm 4 m/S 741 mmHg 82%
    19:00 +14°C° 0,3 mm 3 m/S 741 mmHg 85%
    20:00 +13°C° 0,3 mm 3 m/S 741 mmHg 89%
    21:00 +13°C° 0 mm 3 m/S 741 mmHg 89%
    22:00 +13°C° 0 mm 3 m/S 741 mmHg 88%
    23:00 +12°C° 0 mm 4 m/S 741 mmHg 87%

    23 Juni, Samstag

    Zeit Temperatur Niederschläge Wind Luftdruck Luftfeuchtigkeit
    00:00 +12°C° 0,2 mm 3 m/S 742 mmHg 87%
    01:00 +11°C° 0,2 mm 3 m/S 742 mmHg 87%
    02:00 +12°C° 0,2 mm 2 m/S 742 mmHg 87%
    03:00 +12°C° 0 mm 2 m/S 742 mmHg 87%
    04:00 +12°C° 0 mm 2 m/S 742 mmHg 87%
    05:00 +10°C° 0 mm 2 m/S 742 mmHg 87%
    06:00 +11°C° 0 mm 3 m/S 742 mmHg 83%
    07:00 +12°C° 0 mm 3 m/S 743 mmHg 80%
    08:00 +12°C° 0 mm 3 m/S 743 mmHg 76%
    09:00 +13°C° 0 mm 3 m/S 743 mmHg 71%
    10:00 +15°C° 0 mm 4 m/S 743 mmHg 66%
    11:00 +17°C° 0 mm 4 m/S 743 mmHg 60%
    12:00 +17°C° 0 mm 4 m/S 743 mmHg 58%
    13:00 +18°C° 0 mm 4 m/S 742 mmHg 55%
    14:00 +19°C° 0 mm 4 m/S 742 mmHg 52%
    15:00 +19°C° 0,1 mm 4 m/S 742 mmHg 53%
    16:00 +19°C° 0,1 mm 3 m/S 742 mmHg 54%
    17:00 +19°C° 0,1 mm 3 m/S 742 mmHg 54%
    18:00 +18°C° 0 mm 3 m/S 742 mmHg 60%
    19:00 +17°C° 0 mm 3 m/S 742 mmHg 66%
    20:00 +14°C° 0 mm 3 m/S 743 mmHg 72%
    21:00 +13°C° 0 mm 3 m/S 743 mmHg 76%
    22:00 +12°C° 0 mm 3 m/S 743 mmHg 80%
    23:00 +11°C° 0 mm 3 m/S 744 mmHg 84%
    Mehr zeigen